Overview Statistics Trail Chart Weather Telemetry Raw packets
 

This is the latest recevied weather packets stored in our database for station/object I8ZSE-10. If no packets are shown the sender has not sent any weather packets the latest 10 day(s).

<< 49 50 51 52 53 54 55 >>
Time Temp. Humidity Pressure Rain* Wind** Luminosity Snow
1787903714 30° C 30% - 0 mm - - -
1787903114 29.44° C 33% - 0 mm - - -
1787902514 28.89° C 37% - 0 mm - - -
1787901914 28.33° C 37% - 0 mm - - -
1787901313 28.33° C 37% - 0 mm - - -
1787900714 28.33° C 38% - 0 mm - - -
1787900114 27.78° C 40% - 0 mm - - -
1787899513 26.67° C 40% - 0 mm - - -
1787898913 26.67° C 40% - 0 mm - - -
1787898313 26.11° C 41% - 0 mm - - -
1787897722 26.11° C 42% - 0 mm - - -
1787897114 26.11° C 42% - 0 mm - - -
1787896514 25.56° C 43% - 0 mm - - -
1787895913 25.56° C 41% - 0 mm - - -
1787895313 25.56° C 40% - 0 mm - - -
1787894714 25.56° C 40% - 0 mm - - -
1787894114 25° C 42% - 0 mm - - -
1787893514 25° C 41% - 0 mm - - -
1787892913 25° C 43% - 0 mm - - -
1787892314 24.44° C 45% - 0 mm - - -
1787891714 23.89° C 46% - 0 mm - - -
1787891113 23.89° C 47% - 0 mm - - -
1787890514 24.44° C 45% - 0 mm - - -
1787889913 24.44° C 44% - 0 mm - - -
1787889314 24.44° C 45% - 0 mm - - -

* Rain latest hour (hover to see other rain measurements)
** Current wind speed in m/s (hover to see current wind gust speed)